When you browse on this site, cookies collect data to enhance your experience and personalize the content and advertising you see.
Visit our Privacy Policy to learn more. By continuing to use the site, you agree to this use of cookies and data.

Hourly Weather Biskira

Today, 13 July, Monday

Time Temperature Precipitation Wind Pressure Humidity
00:00 +39°C° 0 mm 7 mps 752 mmHg 22%
01:00 +38°C° 0 mm 6 mps 752 mmHg 25%
02:00 +36°C° 0 mm 5 mps 751 mmHg 28%
03:00 +34°C° 0 mm 4 mps 751 mmHg 31%
04:00 +34°C° 0 mm 4 mps 751 mmHg 31%
05:00 +35°C° 0 mm 5 mps 752 mmHg 31%
06:00 +35°C° 0 mm 5 mps 752 mmHg 31%
07:00 +36°C° 0 mm 5 mps 752 mmHg 27%
08:00 +38°C° 0 mm 6 mps 752 mmHg 23%
09:00 +40°C° 0 mm 6 mps 752 mmHg 19%
10:00 +41°C° 0 mm 5 mps 751 mmHg 18%
11:00 +42°C° 0 mm 5 mps 751 mmHg 17%
12:00 +43°C° 0 mm 5 mps 751 mmHg 16%
13:00 +43°C° 0 mm 4 mps 750 mmHg 15%
14:00 +44°C° 0 mm 3 mps 750 mmHg 15%
15:00 +44°C° 0 mm 3 mps 749 mmHg 14%
16:00 +42°C° 0 mm 5 mps 750 mmHg 18%
17:00 +41°C° 0 mm 8 mps 750 mmHg 22%
18:00 +39°C° 0 mm 10 mps 750 mmHg 26%
19:00 +38°C° 0.1 mm 7 mps 750 mmHg 27%
20:00 +36°C° 0.1 mm 4 mps 750 mmHg 28%
21:00 +35°C° 0.1 mm 1 mps 750 mmHg 29%
22:00 +34°C° 0.1 mm 1 mps 750 mmHg 31%
23:00 +33°C° 0.1 mm 1 mps 750 mmHg 33%

Tomorrow, 14 July, Tuesday

Time Temperature Precipitation Wind Pressure Humidity
00:00 +34°C° 0.1 mm 2 mps 750 mmHg 34%
01:00 +32°C° 0 mm 1 mps 750 mmHg 36%
02:00 +31°C° 0 mm 1 mps 750 mmHg 38%
03:00 +31°C° 0 mm 1 mps 749 mmHg 39%
04:00 +31°C° 0 mm 1 mps 750 mmHg 38%
05:00 +32°C° 0 mm 1 mps 750 mmHg 36%
06:00 +31°C° 0 mm 0 mps 750 mmHg 34%
07:00 +34°C° 0 mm 1 mps 750 mmHg 31%
08:00 +36°C° 0 mm 2 mps 750 mmHg 27%
09:00 +38°C° 0 mm 3 mps 750 mmHg 24%
10:00 +39°C° 0 mm 3 mps 750 mmHg 22%
11:00 +40°C° 0 mm 3 mps 749 mmHg 19%
12:00 +42°C° 0 mm 3 mps 749 mmHg 17%
13:00 +42°C° 0 mm 3 mps 748 mmHg 16%
14:00 +43°C° 0 mm 3 mps 748 mmHg 15%
15:00 +43°C° 0 mm 3 mps 747 mmHg 14%
16:00 +43°C° 0 mm 3 mps 747 mmHg 14%
17:00 +43°C° 0 mm 3 mps 747 mmHg 14%
18:00 +43°C° 0 mm 3 mps 747 mmHg 14%
19:00 +42°C° 0 mm 3 mps 748 mmHg 16%
20:00 +40°C° 0 mm 3 mps 748 mmHg 17%
21:00 +38°C° 0 mm 3 mps 748 mmHg 19%
22:00 +37°C° 0 mm 5 mps 749 mmHg 23%
23:00 +36°C° 0 mm 6 mps 749 mmHg 27%

Day after tomorrow, 15 July, Wednesday

Time Temperature Precipitation Wind Pressure Humidity
00:00 +35°C° 0 mm 7 mps 749 mmHg 31%
01:00 +34°C° 0 mm 6 mps 749 mmHg 33%
02:00 +33°C° 0 mm 5 mps 749 mmHg 35%
03:00 +32°C° 0 mm 4 mps 749 mmHg 37%
04:00 +33°C° 0 mm 4 mps 749 mmHg 37%
05:00 +33°C° 0 mm 4 mps 750 mmHg 36%
06:00 +33°C° 0 mm 5 mps 750 mmHg 35%
07:00 +35°C° 0 mm 5 mps 750 mmHg 31%
08:00 +36°C° 0 mm 6 mps 750 mmHg 27%
09:00 +39°C° 0 mm 7 mps 750 mmHg 23%
10:00 +40°C° 0 mm 6 mps 750 mmHg 22%
11:00 +41°C° 0 mm 6 mps 750 mmHg 20%
12:00 +42°C° 0 mm 6 mps 750 mmHg 19%
13:00 +43°C° 0 mm 4 mps 749 mmHg 18%
14:00 +43°C° 0 mm 3 mps 749 mmHg 17%
15:00 +43°C° 0 mm 2 mps 748 mmHg 17%
16:00 +43°C° 0 mm 2 mps 749 mmHg 17%
17:00 +44°C° 0 mm 3 mps 749 mmHg 16%
18:00 +44°C° 0 mm 3 mps 749 mmHg 16%
19:00 +42°C° 0 mm 3 mps 750 mmHg 19%
20:00 +39°C° 0 mm 2 mps 750 mmHg 22%
21:00 +37°C° 0 mm 2 mps 751 mmHg 25%
22:00 +37°C° 0 mm 2 mps 751 mmHg 25%
23:00 +36°C° 0 mm 2 mps 750 mmHg 25%

16 July, Thursday

Time Temperature Precipitation Wind Pressure Humidity
00:00 +35°C° 0 mm 1 mps 750 mmHg 26%
01:00 +35°C° 0 mm 2 mps 750 mmHg 29%
02:00 +34°C° 0 mm 3 mps 750 mmHg 32%
03:00 +34°C° 0 mm 4 mps 750 mmHg 35%
04:00 +34°C° 0 mm 3 mps 750 mmHg 36%
05:00 +34°C° 0 mm 3 mps 750 mmHg 36%
06:00 +34°C° 0 mm 2 mps 750 mmHg 37%
07:00 +35°C° 0 mm 3 mps 751 mmHg 33%
08:00 +37°C° 0 mm 3 mps 751 mmHg 30%
09:00 +38°C° 0 mm 3 mps 751 mmHg 26%
10:00 +40°C° 0 mm 3 mps 750 mmHg 23%
11:00 +42°C° 0 mm 3 mps 750 mmHg 20%
12:00 +44°C° 0 mm 3 mps 750 mmHg 17%
13:00 +45°C° 0 mm 3 mps 749 mmHg 16%
14:00 +45°C° 0 mm 2 mps 749 mmHg 15%
15:00 +46°C° 0 mm 2 mps 748 mmHg 14%
16:00 +46°C° 0 mm 2 mps 748 mmHg 14%
17:00 +46°C° 0 mm 2 mps 748 mmHg 13%
18:00 +46°C° 0 mm 2 mps 748 mmHg 13%
19:00 +45°C° 0 mm 2 mps 748 mmHg 14%
20:00 +43°C° 0 mm 3 mps 749 mmHg 16%
21:00 +42°C° 0 mm 3 mps 749 mmHg 17%
22:00 +40°C° 0 mm 3 mps 749 mmHg 20%
23:00 +38°C° 0 mm 3 mps 749 mmHg 24%

17 July, Friday

Time Temperature Precipitation Wind Pressure Humidity
00:00 +37°C° 0 mm 3 mps 749 mmHg 27%
01:00 +36°C° 0 mm 4 mps 749 mmHg 34%
02:00 +34°C° 0 mm 4 mps 749 mmHg 41%
03:00 +33°C° 0 mm 5 mps 749 mmHg 48%
04:00 +33°C° 0 mm 4 mps 749 mmHg 48%
05:00 +33°C° 0 mm 3 mps 749 mmHg 48%
06:00 +32°C° 0 mm 2 mps 750 mmHg 47%
07:00 +34°C° 0 mm 2 mps 750 mmHg 44%
08:00 +35°C° 0 mm 2 mps 750 mmHg 41%
09:00 +36°C° 0 mm 2 mps 750 mmHg 38%
10:00 +37°C° 0 mm 2 mps 750 mmHg 34%
11:00 +38°C° 0 mm 3 mps 750 mmHg 30%
12:00 +40°C° 0 mm 3 mps 750 mmHg 26%
13:00 +42°C° 0 mm 4 mps 749 mmHg 23%
14:00 +43°C° 0 mm 5 mps 749 mmHg 20%
15:00 +44°C° 0 mm 7 mps 749 mmHg 17%
16:00 +44°C° 0 mm 6 mps 749 mmHg 16%
17:00 +42°C° 0 mm 6 mps 749 mmHg 15%
18:00 +42°C° 0 mm 6 mps 749 mmHg 15%
19:00 +40°C° 0 mm 6 mps 749 mmHg 17%
20:00 +39°C° 0 mm 6 mps 750 mmHg 20%
21:00 +36°C° 0 mm 6 mps 750 mmHg 23%
22:00 +35°C° 0 mm 5 mps 750 mmHg 25%
23:00 +34°C° 0 mm 4 mps 750 mmHg 27%

18 July, Saturday

Time Temperature Precipitation Wind Pressure Humidity
00:00 +34°C° 0 mm 3 mps 750 mmHg 29%
01:00 +33°C° 0 mm 3 mps 750 mmHg 35%
02:00 +30°C° 0 mm 3 mps 750 mmHg 41%
03:00 +29°C° 0 mm 2 mps 750 mmHg 46%
04:00 +29°C° 0 mm 2 mps 751 mmHg 48%
05:00 +29°C° 0 mm 2 mps 751 mmHg 50%
06:00 +29°C° 0 mm 2 mps 751 mmHg 51%
07:00 +30°C° 0 mm 2 mps 751 mmHg 48%
08:00 +31°C° 0 mm 2 mps 751 mmHg 45%
09:00 +32°C° 0 mm 2 mps 751 mmHg 42%
10:00 +34°C° 0 mm 2 mps 751 mmHg 38%
11:00 +35°C° 0 mm 2 mps 751 mmHg 33%
12:00 +37°C° 0 mm 2 mps 750 mmHg 29%
13:00 +38°C° 0 mm 2 mps 750 mmHg 26%
14:00 +39°C° 0 mm 3 mps 750 mmHg 23%
15:00 +41°C° 0 mm 4 mps 749 mmHg 20%
16:00 +41°C° 0 mm 5 mps 749 mmHg 18%
17:00 +41°C° 0 mm 6 mps 749 mmHg 17%
18:00 +41°C° 0 mm 6 mps 749 mmHg 15%
19:00 +40°C° 0 mm 5 mps 749 mmHg 17%
20:00 +37°C° 0 mm 5 mps 750 mmHg 18%
21:00 +36°C° 0 mm 4 mps 750 mmHg 20%
22:00 +35°C° 0 mm 3 mps 750 mmHg 23%
23:00 +34°C° 0 mm 2 mps 751 mmHg 25%
Show more